Location: Watson Lake
(60.1170°N, 128.8000°W)
Time: 20:08:58
(UTC-07:00)

Daily predictions for brighter satellites

Satellite Brightness Start Highest point End
(mag) Time Altitude Azimuth Time Altitude Azimuth Time Altitude Azimuth
SJ-11-01 4.5 21:24:26 10° SSE 21:29:08 80° WSW 21:33:51 10° NNW
Cosmos 1153 Rocket 4.5 21:23:50 10° S 21:29:57 71° E 21:36:05 10° NNE
CZ-4 DEB 3.1 21:27:16 10° S 21:30:25 69° WSW 21:33:35 10° NNW
Cosmos 1697 Rocket 3.2 21:26:14 10° S 21:31:24 38° ESE 21:36:34 10° NE
Cosmos 1825 Rocket 3.6 21:29:39 10° NNW 21:34:08 88° WSW 21:38:33 10° SSE
USA 186 3.5 21:32:04 10° SSW 21:34:35 28° W 21:36:58 10° NW
ATLAS CENTAUR R/B 2.2 21:30:41 10° WSW 21:35:37 66° NNW 21:40:18 10° ENE
ERS-1 Rocket 3.2 21:32:06 10° SSE 21:37:08 76° WSW 21:42:12 10° NNW
Cosmos 1844 Rocket 3.7 21:32:51 10° NW 21:38:03 37° NNE 21:43:14 10° E
NOSS 2-1 (D) 3.7 21:37:01 10° SW 21:41:17 75° SSE 21:46:43 10° ENE
H-2A R/B 3.0 21:37:33 10° ESE 21:41:54 32° NE 21:46:15 10° N
NOSS 2-1 (C) 3.7 21:38:03 10° SW 21:42:18 75° SSE 21:47:45 10° ENE
Terra 3.1 21:38:36 10° ESE 21:42:36 28° NE 21:46:38 10° N
Cosmos 1842 3.3 21:38:58 10° N 21:42:54 66° ENE 21:46:47 10° SSE
Cosmos 2278 3.7 21:38:29 10° SSW 21:44:12 82° SE 21:49:57 10° NE
SL-16 R/B 3.7 21:41:07 10° SE 21:44:26 16° E 21:47:46 10° ENE
Cosmos 1818 4.4 21:39:39 10° WNW 21:45:03 52° N 21:50:25 10° E
ARGOS 3.5 21:39:54 10° SE 21:45:07 53° ENE 21:50:23 10° NNW
Cosmos 1953 Rocket 3.6 21:41:21 10° NNW 21:45:50 90° WSW 21:50:19 10° SSE
NOAA 11 4.5 21:41:17 10° SE 21:46:37 55° ENE 21:51:57 10° NNW
Cosmos 1802 Rocket 4.2 21:41:04 10° SSE 21:47:18 55° E 21:53:34 10° NNE
ALOS 4.2 21:44:22 10° SSW 21:48:30 30° W 21:52:40 10° NNW
Cosmos 1707 4.2 21:46:05 10° N 21:49:22 24° ENE 21:52:29 11° ESE
Cosmos 1763 Rocket 4.2 21:45:22 10° SSE 21:49:49 32° ESE 21:54:17 10° NE
NOSS 2 (A) 4.3 21:49:19 10° WNW 21:51:44 60° NNE 21:53:49 12° ESE
Cosmos 2016 Rocket 4.2 21:48:26 10° SSE 21:54:24 53° E 22:00:27 10° NNE
Cosmos 1125 Rocket 3.6 21:49:24 10° NW 21:54:37 77° WSW 21:59:50 10° SSE
MetOp-B 4.2 21:49:49 10° SSE 21:55:11 80° ENE 22:00:35 10° NNW
Cosmos 1980 Rocket 2.7 21:50:18 10° S 21:55:28 37° ESE 22:00:41 10° NE
H-2A R/B 2.1 21:53:25 10° SSE 21:57:34 79° WSW 22:01:49 10° NNW
Cosmos 2369 Rocket 4.1 21:53:13 10° WNW 21:58:07 30° NNW 22:03:02 10° NE
NOSS 2-1 (E) 3.8 21:54:04 10° WSW 21:58:27 83° SSE 22:04:09 10° ENE
Cosmos 2369 3.8 21:53:28 10° SW 21:59:11 89° SE 22:04:58 10° NE
Cosmos 1666 3.4 21:56:05 10° SSE 21:59:31 34° E 22:03:00 10° NNE
Cosmos 2228 4.0 21:57:05 10° SSE 22:00:46 29° E 22:04:29 10° NNE
SPOT 1/Viking Rocket 3.7 21:56:02 10° SSE 22:01:12 68° ENE 22:06:24 10° NNW
Cosmos 2098 Rocket 4.0 21:57:32 10° SSE 22:03:22 45° E 22:08:04 10° NNE
Cosmos 1975 3.6 21:59:39 10° SSW 22:03:43 59° WNW 22:07:48 10° N
Cosmos 1758 Rocket 3.8 21:59:53 10° NNW 22:04:16 73° W 22:08:36 10° S
Cosmos 2173 Rocket 4.0 22:00:03 10° S 22:06:22 76° E 22:12:40 10° NNE
YAOGAN 6 2.6 22:02:54 10° SSE 22:06:37 85° ENE 22:10:24 10° NNW
Cosmos 1340 3.8 22:04:28 10° NNW 22:08:06 43° W 22:11:43 10° S
Cosmos 468 Rocket 3.9 22:04:02 10° SSW 22:09:07 68° ESE 22:14:16 10° NE
Cosmos 1943 Rocket 4.0 22:04:18 10° W 22:09:28 34° NNW 22:14:40 10° NE
Cosmos 1656 3.6 22:04:27 10° SSW 22:10:01 73° SE 22:15:32 10° NE
Cosmos 1500 3.5 22:06:56 10° SSW 22:10:42 68° WNW 22:14:31 10° N
Cosmos 2263 Rocket 2.2 22:05:32 10° NW 22:11:08 84° SW 22:16:14 13° SE
ASTEX 1 3.5 22:06:51 10° N 22:11:50 60° E 22:16:47 10° S
Cosmos 841 Rocket 3.9 22:09:20 10° S 22:14:14 41° ESE 22:19:06 10° NE
deb Chang Zheng 4 3.9 22:10:11 10° NNE 22:14:33 48° E 22:18:52 10° S
USA 215 3.5 22:08:55 12° SE 22:14:54 56° SSW 22:21:21 10° W
GP-B 4.2 22:15:01 10° NNE 22:18:53 28° ENE 22:21:39 16° SE
NOSS 7 (D) 4.4 22:15:48 10° SW 22:19:11 73° SSE 22:23:08 10° ENE
SL-08 RB Rocket 3.8 22:16:16 13° SSE 22:20:28 71° ENE 22:25:05 10° NNW
Cosmos 1814 Rocket 4.0 22:16:49 10° SSW 22:22:08 73° ESE 22:27:24 10° NE
Okean 3 Rocket 4.3 22:18:07 10° N 22:22:17 38° ENE 22:25:21 17° SE
Cosmos 2100 Rocket 4.1 22:17:19 10° SSW 22:23:36 84° WNW 22:29:50 10° NNE
Cosmos 1441 Rocket 4.1 22:20:01 10° N 22:23:43 36° ENE 22:26:14 17° ESE
Tsikada Rocket 4.2 22:18:26 10° NNW 22:24:54 82° W 22:31:19 10° S
EP 1 4.4 22:23:11 10° SW 22:25:55 77° SSE 22:29:20 10° ENE
Cosmos 921 Rocket 4.2 22:23:25 10° NNW 22:27:29 33° NE 22:30:43 14° ESE
Meteor 2-5 Rocket 3.9 22:21:54 10° NNW 22:27:52 69° ENE 22:32:50 15° SSE
Genesis I 3.8 22:25:35 10° WNW 22:29:27 49° SW 22:32:11 18° SSE
Cosmos 372 Rocket 4.2 22:24:28 10° NW 22:29:34 67° WSW 22:34:07 13° SSE
Cosmos 2322 Rocket 3.0 22:24:57 10° SSE 22:29:46 30° ESE 22:34:37 10° NE
PSLV R/B 3.8 22:31:51 12° S 22:34:36 51° WSW 22:37:38 10° NNW
Cosmos 405 Rocket 2.7 22:30:58 10° NNW 22:34:47 82° WSW 22:37:44 16° S
Cosmos 2061 Rocket 4.2 22:31:10 10° SSW 22:37:27 77° WNW 22:43:43 10° NNE
Meteor 1-24 Rocket 4.2 22:32:29 10° NNW 22:38:29 56° ENE 22:42:57 18° SE
Meteor 1-15 Rocket 4.4 22:34:24 10° S 22:40:13 63° E 22:45:58 10° NNE
Cosmos 2058 Rocket 3.1 22:38:05 10° S 22:42:37 78° E 22:47:08 10° NNE
Meteor 2-9 Rocket 4.1 22:37:43 10° S 22:43:08 70° ESE 22:48:28 10° NNE
Cosmos 1606 Rocket 3.8 22:40:06 10° SSW 22:44:32 75° WNW 22:49:02 10° NNE
SL-24 R/B - RUBIN 2 4.5 22:39:10 10° SW 22:45:29 78° SE 22:52:16 10° ENE
Cosmos 1076 Rocket 4.4 22:42:33 10° N 22:46:29 34° ENE 22:48:47 20° ESE
Cosmos 2360 4.3 22:41:23 10° SSW 22:46:58 55° ESE 22:52:34 10° NE
Cosmos 1459 Rocket 4.4 22:43:26 10° SSW 22:49:29 65° WNW 22:55:40 10° N
Cosmos 1743 3.8 22:49:33 10° SW 22:53:21 47° WNW 22:57:11 10° N
CZ-4 SHROUD 4.5 22:51:38 13° SSW 22:54:07 36° W 22:57:01 10° NNW
Cosmos 1725 Rocket 4.0 22:49:22 10° S 22:55:37 84° E 23:01:57 10° NNE
CZ-4B R/B 3.6 22:51:05 10° NNE 22:55:42 47° E 22:58:57 19° SSE
CARTOSAT-1 3.6 22:53:03 22° SSE 22:55:50 75° ENE 23:00:11 10° NNW
Cosmos 332 Rocket 4.3 22:54:16 16° S 22:57:46 41° ESE 23:02:23 10° NE
Lacrosse 4 Rocket 3.8 23:00:52 10° E 23:00:52 10° E 23:01:08 10° E
Cosmos 371 Rocket 4.0 22:58:17 22° SSE 23:00:24 32° ESE 23:04:43 10° NE
COSMOS 2428 4.5 23:00:48 13° E 23:01:19 13° E 23:03:53 10° ENE
SPOT 5 4.3 22:57:55 10° SSW 23:02:21 34° W 23:06:35 10° NNW
Cosmos 2278 Rocket 2.8 22:57:53 10° NW 23:03:28 52° NE 23:07:42 17° ESE
Landsat 7 3.9 23:01:16 19° S 23:04:44 75° WSW 23:09:32 10° NNW
Cosmos 1726 Rocket 4.2 23:02:50 10° SSW 23:07:11 58° WNW 23:11:36 10° N
CZ-4C R/B 3.6 23:06:40 22° S 23:09:30 78° WSW 23:13:49 10° NNW
Cosmos 1766 Rocket 4.1 23:06:00 10° N 23:10:22 47° ENE 23:12:32 26° SE
Cosmos 1437 3.2 23:07:11 10° N 23:10:26 49° ENE 23:11:29 34° ESE
DELTA 2 DEB (DPAF) 4.3 23:10:21 22° S 23:13:15 71° WSW 23:17:46 10° NNW
CZ-4B R/B 3.9 23:11:41 11° E 23:13:30 15° NE 23:15:42 10° NNE
IGS 5A 3.4 23:12:24 26° SSE 23:14:41 87° WSW 23:18:54 10° NNW
Cosmos 1697 Rocket 3.0 23:09:30 10° SW 23:15:09 69° NW 23:20:49 10° NE
ATLAS CENTAUR R/B 2.6 23:10:35 10° WNW 23:15:18 48° N 23:19:43 10° ENE
Cosmos 1812 Rocket 3.6 23:15:30 25° S 23:17:56 62° E 23:22:15 10° NNE
Cosmos 2233 Rocket 4.0 23:12:09 12° S 23:17:57 80° E 23:24:16 10° NNE
Terra 1.9 23:17:02 23° S 23:20:00 76° WSW 23:24:49 10° NNW
H-2A R/B 2.2 23:17:46 20° S 23:21:08 65° WSW 23:26:03 10° NNW
Cosmos 1844 Rocket 2.6 23:16:58 10° NW 23:22:36 88° NE 23:25:49 27° SE
CZ-4 R/B 3.8 23:18:12 10° NNE 23:22:55 63° ESE 23:25:51 23° S
ARGOS 4.2 23:20:46 11° SSW 23:25:33 41° W 23:30:42 10° NNW
Cosmos 1707 3.2 23:21:47 10° NNW 23:25:40 58° W 23:27:44 25° SSW
SL-16 R/B 2.2 23:21:54 10° SSW 23:27:28 59° ESE 23:33:04 10° NE
Cosmos 836 Rocket 4.5 23:22:31 10° SSW 23:27:50 88° ESE 23:33:12 10° NNE
Cosmos 1818 3.7 23:23:40 10° WNW 23:29:12 76° NNE 23:32:56 21° ESE
Cosmos 1844 3.7 23:24:07 10° NW 23:29:53 83° NE 23:33:07 27° SE
Cosmos 2056 Rocket 4.1 23:25:17 10° NNW 23:30:27 51° NE 23:33:39 23° ESE
Cosmos 1763 Rocket 3.8 23:26:18 10° SW 23:31:22 67° NW 23:36:27 10° NNE
Cosmos 1378 3.1 23:27:52 10° NNW 23:31:42 85° ENE 23:33:03 38° SSE
NOSS 2-1 (D) 4.5 23:27:31 10° W 23:32:09 63° N 23:38:16 10° ENE
Cosmos 783 Rocket 4.5 23:28:55 16° SSW 23:33:07 64° ESE 23:38:21 10° NE
NOSS 2-1 (C) 4.5 23:28:33 10° W 23:33:11 63° N 23:39:17 10° ENE
Cosmos 1666 4.2 23:31:40 10° SW 23:35:13 36° WNW 23:38:49 10° N
Cosmos 1371 Rocket 4.2 23:31:54 10° NNW 23:37:05 64° NE 23:39:50 28° SE
Cosmos 2228 3.8 23:34:00 10° SSW 23:38:10 52° WNW 23:42:25 10° N
Cosmos 1980 Rocket 2.5 23:33:32 10° SW 23:39:14 71° NW 23:44:59 10° NE
SWAS 4.4 23:35:10 10° SW 23:39:31 84° SE 23:43:54 10° NE
Cosmos 2360 Rocket 2.8 23:37:50 29° SSE 23:39:47 37° ESE 23:44:59 10° NE
Cosmos 2369 Rocket 4.0 23:38:50 10° NW 23:43:43 29° NNE 23:48:36 10° ENE
Cosmos 2034 Rocket 4.2 23:41:15 28° SSE 23:44:23 53° E 23:50:25 10° NNE
In-Cosmos 22 4.1 23:39:21 10° NNW 23:44:52 80° ENE 23:47:40 31° SSE
SL-19 R/B 4.4 23:40:03 10° NNE 23:45:39 74° WNW 23:50:58 10° SSW
Cosmos 1092 Rocket 4.2 23:39:35 10° N 23:45:56 64° ENE 23:49:20 28° SE
GEOS 3 Rocket 4.3 23:47:55 10° ENE 23:52:27 30° SE 23:52:42 30° SE
Spot 4 4.2 23:50:20 27° S 23:52:47 56° WSW 23:57:31 10° NNW
Cosmos 2263 Rocket 3.8 23:50:03 10° NW 23:54:26 24° WSW 23:57:56 13° SSW
Cosmos 1943 Rocket 4.2 23:49:53 10° NW 23:54:45 28° N 23:59:37 10° ENE
